Year,Month,Day,Hour,Minute,Value (Times are PST for temperature in C)
2008,05,25,00,00,15.00
2008,05,25,00,01,15.00
2008,05,25,00,02,15.00
2008,05,25,00,03,15.00
2008,05,25,00,04,15.00
2008,05,25,00,05,15.00
2008,05,25,00,06,15.00
2008,05,25,00,07,15.00
2008,05,25,00,08,15.00
2008,05,25,00,09,15.00
2008,05,25,00,10,15.10
2008,05,25,00,11,15.10
2008,05,25,00,12,15.20
2008,05,25,00,13,15.20
2008,05,25,00,14,15.20
2008,05,25,00,15,15.20
2008,05,25,00,16,15.20
2008,05,25,00,17,15.20
2008,05,25,00,18,15.20
2008,05,25,00,19,15.20
2008,05,25,00,20,15.30
2008,05,25,00,21,15.30
2008,05,25,00,22,15.30
2008,05,25,00,23,15.30
2008,05,25,00,24,15.40
2008,05,25,00,25,15.40
2008,05,25,00,26,15.40
2008,05,25,00,27,15.50
2008,05,25,00,28,15.50
2008,05,25,00,29,15.50
2008,05,25,00,30,15.60
2008,05,25,00,31,15.60
2008,05,25,00,32,15.60
2008,05,25,00,33,15.70
2008,05,25,00,34,15.70
2008,05,25,00,35,15.70
2008,05,25,00,36,15.80
2008,05,25,00,37,15.80
2008,05,25,00,38,15.80
2008,05,25,00,39,15.80
2008,05,25,00,40,15.80
2008,05,25,00,41,15.90
2008,05,25,00,42,15.90
2008,05,25,00,43,15.90
2008,05,25,00,44,15.90
2008,05,25,00,45,15.90
2008,05,25,00,46,15.90
2008,05,25,00,47,15.90
2008,05,25,00,48,15.90
2008,05,25,00,49,15.90
2008,05,25,00,50,15.90
2008,05,25,00,51,15.90
2008,05,25,00,52,15.90
2008,05,25,00,53,15.80
2008,05,25,00,54,15.80
2008,05,25,00,55,15.80
2008,05,25,00,56,15.80
2008,05,25,00,57,15.80
2008,05,25,00,58,15.80
2008,05,25,00,59,15.80
2008,05,25,01,00,15.80
2008,05,25,01,01,15.80
2008,05,25,01,02,15.80
2008,05,25,01,03,15.80
2008,05,25,01,04,15.80
2008,05,25,01,05,15.80
2008,05,25,01,06,15.80
2008,05,25,01,07,15.80
2008,05,25,01,08,15.80
2008,05,25,01,09,15.80
2008,05,25,01,10,15.90
2008,05,25,01,11,15.90
2008,05,25,01,12,15.90
2008,05,25,01,13,15.80
2008,05,25,01,14,15.80
2008,05,25,01,15,15.80
2008,05,25,01,16,15.70
2008,05,25,01,17,15.60
2008,05,25,01,18,15.60
2008,05,25,01,19,15.60
2008,05,25,01,20,15.50
2008,05,25,01,21,15.50
2008,05,25,01,22,15.50
2008,05,25,01,23,15.40
2008,05,25,01,24,15.40
2008,05,25,01,25,15.30
2008,05,25,01,26,15.20
2008,05,25,01,27,15.10
2008,05,25,01,28,15.00
2008,05,25,01,29,15.00
2008,05,25,01,30,15.00
2008,05,25,01,31,15.00
2008,05,25,01,32,15.00
2008,05,25,01,33,14.90
2008,05,25,01,34,14.70
2008,05,25,01,35,14.50
2008,05,25,01,36,14.40
2008,05,25,01,37,14.30
2008,05,25,01,38,14.30
2008,05,25,01,39,14.20
2008,05,25,01,40,14.10
2008,05,25,01,41,14.10
2008,05,25,01,42,14.00
2008,05,25,01,43,14.00
2008,05,25,01,44,14.00
2008,05,25,01,45,13.90
2008,05,25,01,46,13.90
2008,05,25,01,47,13.90
2008,05,25,01,48,13.90
2008,05,25,01,49,13.90
2008,05,25,01,50,13.90
2008,05,25,01,51,13.90
2008,05,25,01,52,13.90
2008,05,25,01,53,13.80
2008,05,25,01,54,13.80
2008,05,25,01,55,13.80
2008,05,25,01,56,13.80
2008,05,25,01,57,13.80
2008,05,25,01,58,13.80
2008,05,25,01,59,13.80
2008,05,25,02,00,13.80
2008,05,25,02,01,13.80
2008,05,25,02,02,13.80
2008,05,25,02,03,13.80
2008,05,25,02,04,13.80
2008,05,25,02,05,13.80
2008,05,25,02,06,13.80
2008,05,25,02,07,13.80
2008,05,25,02,08,13.80
2008,05,25,02,09,13.80
2008,05,25,02,10,13.80
2008,05,25,02,11,13.70
2008,05,25,02,12,13.70
2008,05,25,02,13,13.70
2008,05,25,02,14,13.70
2008,05,25,02,15,13.60
2008,05,25,02,16,13.60
2008,05,25,02,17,13.60
2008,05,25,02,18,13.60
2008,05,25,02,19,13.50
2008,05,25,02,20,13.50
2008,05,25,02,21,13.50
2008,05,25,02,22,13.50
2008,05,25,02,23,13.50
2008,05,25,02,24,13.60
2008,05,25,02,25,13.60
2008,05,25,02,26,13.60
2008,05,25,02,27,13.60
2008,05,25,02,28,13.60
2008,05,25,02,29,13.70
2008,05,25,02,30,13.70
2008,05,25,02,31,13.70
2008,05,25,02,32,13.80
2008,05,25,02,33,13.80
2008,05,25,02,34,13.80
2008,05,25,02,35,13.90
2008,05,25,02,36,13.90
2008,05,25,02,37,13.90
2008,05,25,02,38,14.00
2008,05,25,02,39,14.00
2008,05,25,02,40,14.10
2008,05,25,02,41,14.10
2008,05,25,02,42,14.20
2008,05,25,02,43,14.20
2008,05,25,02,44,14.20
2008,05,25,02,45,14.30
2008,05,25,02,46,14.30
2008,05,25,02,47,14.30
2008,05,25,02,48,14.40
2008,05,25,02,49,14.40
2008,05,25,02,50,14.40
2008,05,25,02,51,14.50
2008,05,25,02,52,14.50
2008,05,25,02,53,14.50
2008,05,25,02,54,14.60
2008,05,25,02,55,14.60
2008,05,25,02,56,14.60
2008,05,25,02,57,14.60
2008,05,25,02,58,14.60
2008,05,25,02,59,14.60
2008,05,25,03,00,14.60
2008,05,25,03,01,14.60
2008,05,25,03,02,14.60
2008,05,25,03,03,14.60
2008,05,25,03,04,14.50
2008,05,25,03,05,14.50
2008,05,25,03,06,14.50
2008,05,25,03,07,14.50
2008,05,25,03,08,14.50
2008,05,25,03,09,14.50
2008,05,25,03,10,14.40
2008,05,25,03,11,14.40
2008,05,25,03,12,14.40
2008,05,25,03,13,14.50
2008,05,25,03,14,14.50
2008,05,25,03,15,14.50
2008,05,25,03,16,14.50
2008,05,25,03,17,14.50
2008,05,25,03,18,14.50
2008,05,25,03,19,14.50
2008,05,25,03,20,14.50
2008,05,25,03,21,14.50
2008,05,25,03,22,14.60
2008,05,25,03,23,14.60
2008,05,25,03,24,14.60
2008,05,25,03,25,14.60
2008,05,25,03,26,14.60
2008,05,25,03,27,14.50
2008,05,25,03,28,14.50
2008,05,25,03,29,14.50
2008,05,25,03,30,14.50
2008,05,25,03,31,14.50
2008,05,25,03,32,14.50
2008,05,25,03,33,14.50
2008,05,25,03,34,14.50
2008,05,25,03,35,14.50
2008,05,25,03,36,14.50
2008,05,25,03,37,14.50
2008,05,25,03,38,14.50
2008,05,25,03,39,14.50
2008,05,25,03,40,14.50
2008,05,25,03,41,14.60
2008,05,25,03,42,14.60
2008,05,25,03,43,14.60
2008,05,25,03,44,14.60
2008,05,25,03,45,14.70
2008,05,25,03,46,14.70
2008,05,25,03,47,14.70
2008,05,25,03,48,14.80
2008,05,25,03,49,14.90
2008,05,25,03,50,15.00
2008,05,25,03,51,15.00
2008,05,25,03,52,15.00
2008,05,25,03,53,15.00
2008,05,25,03,54,15.00
2008,05,25,03,55,15.00
2008,05,25,03,56,15.10
2008,05,25,03,57,15.10
2008,05,25,03,58,15.20
2008,05,25,03,59,15.20
2008,05,25,04,00,15.20
2008,05,25,04,01,15.30
2008,05,25,04,02,15.30
2008,05,25,04,03,15.30
2008,05,25,04,04,15.30
2008,05,25,04,05,15.30
2008,05,25,04,06,15.30
2008,05,25,04,07,15.30
2008,05,25,04,08,15.30
2008,05,25,04,09,15.30
2008,05,25,04,10,15.30
2008,05,25,04,11,15.30
2008,05,25,04,12,15.30
2008,05,25,04,13,15.30
2008,05,25,04,14,15.30
2008,05,25,04,15,15.30
2008,05,25,04,16,15.30
2008,05,25,04,17,15.30
2008,05,25,04,18,15.30
2008,05,25,04,19,15.30
2008,05,25,04,20,15.20
2008,05,25,04,21,15.10
2008,05,25,04,22,15.00
2008,05,25,04,23,15.00
2008,05,25,04,24,14.80
2008,05,25,04,25,14.70
2008,05,25,04,26,14.70
2008,05,25,04,27,14.60
2008,05,25,04,28,14.50
2008,05,25,04,29,14.50
2008,05,25,04,30,14.40
2008,05,25,04,31,14.20
2008,05,25,04,32,14.10
2008,05,25,04,33,13.90
2008,05,25,04,34,13.80
2008,05,25,04,35,13.70
2008,05,25,04,36,13.60
2008,05,25,04,37,13.50
2008,05,25,04,38,13.40
2008,05,25,04,39,13.30
2008,05,25,04,40,13.30
2008,05,25,04,41,13.20
2008,05,25,04,42,13.20
2008,05,25,04,43,13.10
2008,05,25,04,44,13.10
2008,05,25,04,45,13.10
2008,05,25,04,46,13.00
2008,05,25,04,47,13.00
2008,05,25,04,48,12.90
2008,05,25,04,49,12.90
2008,05,25,04,50,12.90
2008,05,25,04,51,12.90
2008,05,25,04,52,12.90
2008,05,25,04,53,12.90
2008,05,25,04,54,12.90
2008,05,25,04,55,12.90
2008,05,25,04,56,13.00
2008,05,25,04,57,13.00
2008,05,25,04,58,13.00
2008,05,25,04,59,13.00
2008,05,25,05,00,13.00
2008,05,25,05,01,13.00
2008,05,25,05,02,13.00
2008,05,25,05,03,13.00
2008,05,25,05,04,13.00
2008,05,25,05,05,13.10
2008,05,25,05,06,13.10
2008,05,25,05,07,13.10
2008,05,25,05,08,13.10
2008,05,25,05,09,13.10
2008,05,25,05,10,13.10
2008,05,25,05,11,13.10
2008,05,25,05,12,13.10
2008,05,25,05,13,13.10
2008,05,25,05,14,13.10
2008,05,25,05,15,13.10
2008,05,25,05,16,13.10
2008,05,25,05,17,13.00
2008,05,25,05,18,13.10
2008,05,25,05,19,13.10
2008,05,25,05,20,13.10
2008,05,25,05,21,13.10
2008,05,25,05,22,13.10
2008,05,25,05,23,13.20
2008,05,25,05,24,13.20
2008,05,25,05,25,13.20
2008,05,25,05,26,13.20
2008,05,25,05,27,13.30
2008,05,25,05,28,13.30
2008,05,25,05,29,13.30
2008,05,25,05,30,13.30
2008,05,25,05,31,13.40
2008,05,25,05,32,13.40
2008,05,25,05,33,13.40
2008,05,25,05,34,13.40
2008,05,25,05,35,13.40
2008,05,25,05,36,13.40
2008,05,25,05,37,13.40
2008,05,25,05,38,13.30
2008,05,25,05,39,13.30
2008,05,25,05,40,13.20
2008,05,25,05,41,13.20
2008,05,25,05,42,13.10
2008,05,25,05,43,13.00
2008,05,25,05,44,12.90
2008,05,25,05,45,12.80
2008,05,25,05,46,12.80
2008,05,25,05,47,12.70
2008,05,25,05,48,12.70
2008,05,25,05,49,12.70
2008,05,25,05,50,12.60
2008,05,25,05,51,12.60
2008,05,25,05,52,12.60
2008,05,25,05,53,12.60
2008,05,25,05,54,12.60
2008,05,25,05,55,12.50
2008,05,25,05,56,12.50
2008,05,25,05,57,12.50
2008,05,25,05,58,12.50
2008,05,25,05,59,12.50
2008,05,25,06,00,12.50
2008,05,25,06,01,12.50
2008,05,25,06,02,12.50
2008,05,25,06,03,12.40
2008,05,25,06,04,12.40
2008,05,25,06,05,12.40
2008,05,25,06,06,12.40
2008,05,25,06,07,12.40
2008,05,25,06,08,12.40
2008,05,25,06,09,12.40
2008,05,25,06,10,12.40
2008,05,25,06,11,12.40
2008,05,25,06,12,12.40
2008,05,25,06,13,12.40
2008,05,25,06,14,12.30
2008,05,25,06,15,12.30
2008,05,25,06,16,12.30
2008,05,25,06,17,12.30
2008,05,25,06,18,12.30
2008,05,25,06,19,12.20
2008,05,25,06,20,12.20
2008,05,25,06,21,12.20
2008,05,25,06,22,12.20
2008,05,25,06,23,12.10
2008,05,25,06,24,12.10
2008,05,25,06,25,12.10
2008,05,25,06,26,12.00
2008,05,25,06,27,12.00
2008,05,25,06,28,12.00
2008,05,25,06,29,12.00
2008,05,25,06,30,11.90
2008,05,25,06,31,11.90
2008,05,25,06,32,11.90
2008,05,25,06,33,11.90
2008,05,25,06,34,11.90
2008,05,25,06,35,11.90
2008,05,25,06,36,11.90
2008,05,25,06,37,11.90
2008,05,25,06,38,11.90
2008,05,25,06,39,11.90
2008,05,25,06,40,11.90
2008,05,25,06,41,11.90
2008,05,25,06,42,11.90
2008,05,25,06,43,12.00
2008,05,25,06,44,12.00
2008,05,25,06,45,12.00
2008,05,25,06,46,12.10
2008,05,25,06,47,12.10
2008,05,25,06,48,12.10
2008,05,25,06,49,12.10
2008,05,25,06,50,12.10
2008,05,25,06,51,12.10
2008,05,25,06,52,12.20
2008,05,25,06,53,12.20
2008,05,25,06,54,12.20
2008,05,25,06,55,12.20
2008,05,25,06,56,12.20
2008,05,25,06,57,12.30
2008,05,25,06,58,12.30
2008,05,25,06,59,12.30
2008,05,25,07,00,12.30
2008,05,25,07,01,12.30
2008,05,25,07,02,12.40
2008,05,25,07,03,12.40
2008,05,25,07,04,12.40
2008,05,25,07,05,12.40
2008,05,25,07,06,12.50
2008,05,25,07,07,12.50
2008,05,25,07,08,12.60
2008,05,25,07,09,12.60
2008,05,25,07,10,12.60
2008,05,25,07,11,12.60
2008,05,25,07,12,12.70
2008,05,25,07,13,12.70
2008,05,25,07,14,12.70
2008,05,25,07,15,12.70
2008,05,25,07,16,12.70
2008,05,25,07,17,12.80
2008,05,25,07,18,12.80
2008,05,25,07,19,12.80
2008,05,25,07,20,12.80
2008,05,25,07,21,12.80
2008,05,25,07,22,12.80
2008,05,25,07,23,12.80
2008,05,25,07,24,12.80
2008,05,25,07,25,12.80
2008,05,25,07,26,12.90
2008,05,25,07,27,12.80
2008,05,25,07,28,12.80
2008,05,25,07,29,12.80
2008,05,25,07,30,12.80
2008,05,25,07,31,12.80
2008,05,25,07,32,12.80
2008,05,25,07,33,12.70
2008,05,25,07,34,12.70
2008,05,25,07,35,12.70
2008,05,25,07,36,12.70
2008,05,25,07,37,12.70
2008,05,25,07,38,12.60
2008,05,25,07,39,12.60
2008,05,25,07,40,12.60
2008,05,25,07,41,12.60
2008,05,25,07,42,12.60
2008,05,25,07,43,12.60
2008,05,25,07,44,12.60
2008,05,25,07,45,12.60
2008,05,25,07,46,12.60
2008,05,25,07,47,12.50
2008,05,25,07,48,12.50
2008,05,25,07,49,12.50
2008,05,25,07,50,12.50
2008,05,25,07,51,12.50
2008,05,25,07,52,12.50
2008,05,25,07,53,12.50
2008,05,25,07,54,12.50
2008,05,25,07,55,12.50
2008,05,25,07,56,12.50
2008,05,25,07,57,12.50
2008,05,25,07,58,12.50
2008,05,25,07,59,12.50
2008,05,25,08,00,12.50
2008,05,25,08,01,12.60
2008,05,25,08,02,12.60
2008,05,25,08,03,12.60
2008,05,25,08,04,12.60
2008,05,25,08,05,12.70
2008,05,25,08,06,12.70
2008,05,25,08,07,12.70
2008,05,25,08,08,12.70
2008,05,25,08,09,12.70
2008,05,25,08,10,12.70
2008,05,25,08,11,12.80
2008,05,25,08,12,12.80
2008,05,25,08,13,12.80
2008,05,25,08,14,12.70
2008,05,25,08,15,12.70
2008,05,25,08,16,12.60
2008,05,25,08,17,12.50
2008,05,25,08,18,12.50
2008,05,25,08,19,12.50
2008,05,25,08,20,12.50
2008,05,25,08,21,12.60
2008,05,25,08,22,12.60
2008,05,25,08,23,12.60
2008,05,25,08,24,12.50
2008,05,25,08,25,12.50
2008,05,25,08,26,12.50
2008,05,25,08,27,12.50
2008,05,25,08,28,12.50
2008,05,25,08,29,12.50
2008,05,25,08,30,12.50
2008,05,25,08,31,12.60
2008,05,25,08,32,12.60
2008,05,25,08,33,12.60
2008,05,25,08,34,12.60
2008,05,25,08,35,12.70
2008,05,25,08,36,12.70
2008,05,25,08,37,12.70
2008,05,25,08,38,12.80
2008,05,25,08,39,12.80
2008,05,25,08,40,12.80
2008,05,25,08,41,12.80
2008,05,25,08,42,12.90
2008,05,25,08,43,12.90
2008,05,25,08,44,12.90
2008,05,25,08,45,12.90
2008,05,25,08,46,12.90
2008,05,25,08,47,12.90
2008,05,25,08,48,12.90
2008,05,25,08,49,12.90
2008,05,25,08,50,12.80
2008,05,25,08,51,12.80
2008,05,25,08,52,12.80
2008,05,25,08,53,12.80
2008,05,25,08,54,12.70
2008,05,25,08,55,12.70
2008,05,25,08,56,12.70
2008,05,25,08,57,12.70
2008,05,25,08,58,12.60
2008,05,25,08,59,12.60
2008,05,25,09,00,12.60
2008,05,25,09,01,12.50
2008,05,25,09,02,12.50
2008,05,25,09,03,12.40
2008,05,25,09,04,12.30
2008,05,25,09,05,12.20
2008,05,25,09,06,12.10
2008,05,25,09,07,12.00
2008,05,25,09,08,12.00
2008,05,25,09,09,11.90
2008,05,25,09,10,11.90
2008,05,25,09,11,11.90
2008,05,25,09,12,11.80
2008,05,25,09,13,11.80
2008,05,25,09,14,11.80
2008,05,25,09,15,11.90
2008,05,25,09,16,11.90
2008,05,25,09,17,11.90
2008,05,25,09,18,11.90
2008,05,25,09,19,11.90
2008,05,25,09,20,11.90
2008,05,25,09,21,11.90
2008,05,25,09,22,12.00
2008,05,25,09,23,12.00
2008,05,25,09,24,12.00
2008,05,25,09,25,11.90
2008,05,25,09,26,11.90
2008,05,25,09,27,11.90
2008,05,25,09,28,11.90
2008,05,25,09,29,11.90
2008,05,25,09,30,11.90
2008,05,25,09,31,11.90
2008,05,25,09,32,11.90
2008,05,25,09,33,11.90
2008,05,25,09,34,11.90
2008,05,25,09,35,11.90
2008,05,25,09,36,11.80
2008,05,25,09,37,11.80
2008,05,25,09,38,11.80
2008,05,25,09,39,11.70
2008,05,25,09,40,11.70
2008,05,25,09,41,11.60
2008,05,25,09,42,11.60
2008,05,25,09,43,11.50
2008,05,25,09,44,11.50
2008,05,25,09,45,11.60
2008,05,25,09,46,11.60
2008,05,25,09,47,11.70
2008,05,25,09,48,11.80
2008,05,25,09,49,11.90
2008,05,25,09,50,12.00
2008,05,25,09,51,12.10
2008,05,25,09,52,12.20
2008,05,25,09,53,12.40
2008,05,25,09,54,12.50
2008,05,25,09,55,12.60
2008,05,25,09,56,12.70
2008,05,25,09,57,12.70
2008,05,25,09,58,12.70
2008,05,25,09,59,12.70
2008,05,25,10,00,12.60
2008,05,25,10,01,12.60
2008,05,25,10,02,12.60
2008,05,25,10,03,12.60
2008,05,25,10,04,12.60
2008,05,25,10,05,12.50
2008,05,25,10,06,12.50
2008,05,25,10,07,12.50
2008,05,25,10,08,12.50
2008,05,25,10,09,12.50
2008,05,25,10,10,12.50
2008,05,25,10,11,12.40
2008,05,25,10,12,12.40
2008,05,25,10,13,12.40
2008,05,25,10,14,12.30
2008,05,25,10,15,12.30
2008,05,25,10,16,12.40
2008,05,25,10,17,12.40
2008,05,25,10,18,12.40
2008,05,25,10,19,12.40
2008,05,25,10,20,12.40
2008,05,25,10,21,12.40
2008,05,25,10,22,12.40
2008,05,25,10,23,12.40
2008,05,25,10,24,12.50
2008,05,25,10,25,12.60
2008,05,25,10,26,12.60
2008,05,25,10,27,12.80
2008,05,25,10,28,12.90
2008,05,25,10,29,13.10
2008,05,25,10,30,13.20
2008,05,25,10,31,13.30
2008,05,25,10,32,13.40
2008,05,25,10,33,13.50
2008,05,25,10,34,13.60
2008,05,25,10,35,13.60
2008,05,25,10,36,13.60
2008,05,25,10,37,13.60
2008,05,25,10,38,13.60
2008,05,25,10,39,13.70
2008,05,25,10,40,13.80
2008,05,25,10,41,13.90
2008,05,25,10,42,14.10
2008,05,25,10,43,14.30
2008,05,25,10,44,14.40
2008,05,25,10,45,14.50
2008,05,25,10,46,14.60
2008,05,25,10,47,14.70
2008,05,25,10,48,14.90
2008,05,25,10,49,15.00
2008,05,25,10,50,15.00
2008,05,25,10,51,15.00
2008,05,25,10,52,15.00
2008,05,25,10,53,15.00
2008,05,25,10,54,15.00
2008,05,25,10,55,15.00
2008,05,25,10,56,15.00
2008,05,25,10,57,15.00
2008,05,25,10,58,14.80
2008,05,25,10,59,14.80
2008,05,25,11,00,14.70
2008,05,25,11,01,14.70
2008,05,25,11,02,14.80
2008,05,25,11,03,14.80
2008,05,25,11,04,14.80
2008,05,25,11,05,14.80
2008,05,25,11,06,14.80
2008,05,25,11,07,14.70
2008,05,25,11,08,14.40
2008,05,25,11,09,14.30
2008,05,25,11,10,14.10
2008,05,25,11,11,13.90
2008,05,25,11,12,13.80
2008,05,25,11,13,13.80
2008,05,25,11,14,13.70
2008,05,25,11,15,13.70
2008,05,25,11,16,13.70
2008,05,25,11,17,13.80
2008,05,25,11,18,13.80
2008,05,25,11,19,13.90
2008,05,25,11,20,13.90
2008,05,25,11,21,14.00
2008,05,25,11,22,14.10
2008,05,25,11,23,14.20
2008,05,25,11,24,14.20
2008,05,25,11,25,14.30
2008,05,25,11,26,14.40
2008,05,25,11,27,14.60
2008,05,25,11,28,14.70
2008,05,25,11,29,14.70
2008,05,25,11,30,14.70
2008,05,25,11,31,14.80
2008,05,25,11,32,15.00
2008,05,25,11,33,15.00
2008,05,25,11,34,15.30
2008,05,25,11,35,15.60
2008,05,25,11,36,15.90
2008,05,25,11,37,16.10
2008,05,25,11,38,16.30
2008,05,25,11,39,16.40
2008,05,25,11,40,16.40
2008,05,25,11,41,16.30
2008,05,25,11,42,16.30
2008,05,25,11,43,16.20
2008,05,25,11,44,16.10
2008,05,25,11,45,16.00
2008,05,25,11,46,15.90
2008,05,25,11,47,15.80
2008,05,25,11,48,15.70
2008,05,25,11,49,15.60
2008,05,25,11,50,15.60
2008,05,25,11,51,15.60
2008,05,25,11,52,15.60
2008,05,25,11,53,15.60
2008,05,25,11,54,15.60
2008,05,25,11,55,15.60
2008,05,25,11,56,15.60
2008,05,25,11,57,15.70
2008,05,25,11,58,15.60
2008,05,25,11,59,15.60
2008,05,25,12,00,15.50
2008,05,25,12,01,15.50
2008,05,25,12,02,15.50
2008,05,25,12,03,15.50
2008,05,25,12,04,15.50
2008,05,25,12,05,15.50
2008,05,25,12,06,15.40
2008,05,25,12,07,15.40
2008,05,25,12,08,15.40
2008,05,25,12,09,15.30
2008,05,25,12,10,15.30
2008,05,25,12,11,15.20
2008,05,25,12,12,15.10
2008,05,25,12,13,15.10
2008,05,25,12,14,15.10
2008,05,25,12,15,15.10
2008,05,25,12,16,15.10
2008,05,25,12,17,15.20
2008,05,25,12,18,15.20
2008,05,25,12,19,15.30
2008,05,25,12,20,15.30
2008,05,25,12,21,15.40
2008,05,25,12,22,15.50
2008,05,25,12,23,15.70
2008,05,25,12,24,15.90
2008,05,25,12,25,16.10
2008,05,25,12,26,16.30
2008,05,25,12,27,16.40
2008,05,25,12,28,16.70
2008,05,25,12,29,16.90
2008,05,25,12,30,17.10
2008,05,25,12,31,17.30
2008,05,25,12,32,17.50
2008,05,25,12,33,17.60
2008,05,25,12,34,17.90
2008,05,25,12,35,18.40
2008,05,25,12,36,18.80
2008,05,25,12,37,19.20
2008,05,25,12,38,19.40
2008,05,25,12,39,19.70
2008,05,25,12,40,20.00
2008,05,25,12,41,20.20
2008,05,25,12,42,20.30
2008,05,25,12,43,20.50
2008,05,25,12,44,20.60
2008,05,25,12,45,20.60
2008,05,25,12,46,20.70
2008,05,25,12,47,20.70
2008,05,25,12,48,20.70
2008,05,25,12,49,20.80
2008,05,25,12,50,20.90
2008,05,25,12,51,21.00
2008,05,25,12,52,21.10
2008,05,25,12,53,21.20
2008,05,25,12,54,21.30
2008,05,25,12,55,21.40
2008,05,25,12,56,21.40
2008,05,25,12,57,21.50
2008,05,25,12,58,21.50
2008,05,25,12,59,21.50
2008,05,25,13,00,21.50
2008,05,25,13,01,21.50
2008,05,25,13,02,21.60
2008,05,25,13,03,21.60
2008,05,25,13,04,21.60
2008,05,25,13,05,21.70
2008,05,25,13,06,21.80
2008,05,25,13,07,21.80
2008,05,25,13,08,21.70
2008,05,25,13,09,21.60
2008,05,25,13,10,21.50
2008,05,25,13,11,21.40
2008,05,25,13,12,21.30
2008,05,25,13,13,21.20
2008,05,25,13,14,21.00
2008,05,25,13,15,21.00
2008,05,25,13,16,20.90
2008,05,25,13,17,20.90
2008,05,25,13,18,20.80
2008,05,25,13,19,20.80
2008,05,25,13,20,20.80
2008,05,25,13,21,20.90
2008,05,25,13,22,20.90
2008,05,25,13,23,20.90
2008,05,25,13,24,20.90
2008,05,25,13,25,20.90
2008,05,25,13,26,20.90
2008,05,25,13,27,20.80
2008,05,25,13,28,20.80
2008,05,25,13,29,20.80
2008,05,25,13,30,20.90
2008,05,25,13,31,20.90
2008,05,25,13,32,20.90
2008,05,25,13,33,21.00
2008,05,25,13,34,21.00
2008,05,25,13,35,21.10
2008,05,25,13,36,21.10
2008,05,25,13,37,21.20
2008,05,25,13,38,21.20
2008,05,25,13,39,21.20
2008,05,25,13,40,21.20
2008,05,25,13,41,21.20
2008,05,25,13,42,21.20
2008,05,25,13,43,21.20
2008,05,25,13,44,21.20
2008,05,25,13,45,21.20
2008,05,25,13,46,21.30
2008,05,25,13,47,21.40
2008,05,25,13,48,21.50
2008,05,25,13,49,21.50
2008,05,25,13,50,21.40
2008,05,25,13,51,21.50
2008,05,25,13,52,21.40
2008,05,25,13,53,21.40
2008,05,25,13,54,21.40
2008,05,25,13,55,21.50
2008,05,25,13,56,21.60
2008,05,25,13,57,21.50
2008,05,25,13,58,21.40
2008,05,25,13,59,21.40
2008,05,25,14,00,21.40
2008,05,25,14,01,21.40
2008,05,25,14,02,21.50
2008,05,25,14,03,21.70
2008,05,25,14,04,21.80
2008,05,25,14,05,21.90
2008,05,25,14,06,22.00
2008,05,25,14,07,22.00
2008,05,25,14,08,21.90
2008,05,25,14,09,21.80
2008,05,25,14,10,21.90
2008,05,25,14,11,22.00
2008,05,25,14,12,22.10
2008,05,25,14,13,22.20
2008,05,25,14,14,22.30
2008,05,25,14,15,22.30
2008,05,25,14,16,22.30
2008,05,25,14,17,22.40
2008,05,25,14,18,22.40
2008,05,25,14,19,22.50
2008,05,25,14,20,22.60
2008,05,25,14,21,22.60
2008,05,25,14,22,22.70
2008,05,25,14,23,22.60
2008,05,25,14,24,22.60
2008,05,25,14,25,22.60
2008,05,25,14,26,22.70
2008,05,25,14,27,22.70
2008,05,25,14,28,22.70
2008,05,25,14,29,22.50
2008,05,25,14,30,22.50
2008,05,25,14,31,22.40
2008,05,25,14,32,22.40
2008,05,25,14,33,22.50
2008,05,25,14,34,22.60
2008,05,25,14,35,22.60
2008,05,25,14,36,22.60
2008,05,25,14,37,22.50
2008,05,25,14,38,22.40
2008,05,25,14,39,22.30
2008,05,25,14,40,22.20
2008,05,25,14,41,22.00
2008,05,25,14,42,22.00
2008,05,25,14,43,22.00
2008,05,25,14,44,21.90
2008,05,25,14,45,21.80
2008,05,25,14,46,21.80
2008,05,25,14,47,21.80
2008,05,25,14,48,21.80
2008,05,25,14,49,21.90
2008,05,25,14,50,21.90
2008,05,25,14,51,21.90
2008,05,25,14,52,21.90
2008,05,25,14,53,22.00
2008,05,25,14,54,21.90
2008,05,25,14,55,21.80
2008,05,25,14,56,21.80
2008,05,25,14,57,21.80
2008,05,25,14,58,21.80
2008,05,25,14,59,21.80
2008,05,25,15,00,21.70
2008,05,25,15,01,21.70
2008,05,25,15,02,21.70
2008,05,25,15,03,21.70
2008,05,25,15,04,21.50
2008,05,25,15,05,21.40
2008,05,25,15,06,21.40
2008,05,25,15,07,21.20
2008,05,25,15,08,21.20
2008,05,25,15,09,21.20
2008,05,25,15,10,21.30
2008,05,25,15,11,21.40
2008,05,25,15,12,21.30
2008,05,25,15,13,21.40
2008,05,25,15,14,21.50
2008,05,25,15,15,21.50
2008,05,25,15,16,21.60
2008,05,25,15,17,21.80
2008,05,25,15,18,21.90
2008,05,25,15,19,21.90
2008,05,25,15,20,21.90
2008,05,25,15,21,21.90
2008,05,25,15,22,21.90
2008,05,25,15,23,21.90
2008,05,25,15,24,21.90
2008,05,25,15,25,21.90
2008,05,25,15,26,21.80
2008,05,25,15,27,21.80
2008,05,25,15,28,21.80
2008,05,25,15,29,21.80
2008,05,25,15,30,21.80
2008,05,25,15,31,21.80
2008,05,25,15,32,21.90
2008,05,25,15,33,21.90
2008,05,25,15,34,21.90
2008,05,25,15,35,21.90
2008,05,25,15,36,21.80
2008,05,25,15,37,21.80
2008,05,25,15,38,21.80
2008,05,25,15,39,21.80
2008,05,25,15,40,21.80
2008,05,25,15,41,21.80
2008,05,25,15,42,21.80
2008,05,25,15,43,21.60
2008,05,25,15,44,21.60
2008,05,25,15,45,21.70
2008,05,25,15,46,21.80
2008,05,25,15,47,21.80
2008,05,25,15,48,21.90
2008,05,25,15,49,21.90
2008,05,25,15,50,21.90
2008,05,25,15,51,21.90
2008,05,25,15,52,22.00
2008,05,25,15,53,22.10
2008,05,25,15,54,22.10
2008,05,25,15,55,22.20
2008,05,25,15,56,22.30
2008,05,25,15,57,22.30
2008,05,25,15,58,22.40
2008,05,25,15,59,22.30
2008,05,25,16,00,22.30
2008,05,25,16,01,22.30
2008,05,25,16,02,22.30
2008,05,25,16,03,22.30
2008,05,25,16,04,22.30
2008,05,25,16,05,22.30
2008,05,25,16,06,22.30
2008,05,25,16,07,22.30
2008,05,25,16,08,22.30
2008,05,25,16,09,22.30
2008,05,25,16,10,22.20
2008,05,25,16,11,22.00
2008,05,25,16,12,21.80
2008,05,25,16,13,21.80
2008,05,25,16,14,21.60
2008,05,25,16,15,21.50
2008,05,25,16,16,21.40
2008,05,25,16,17,21.40
2008,05,25,16,18,21.40
2008,05,25,16,19,21.40
2008,05,25,16,20,21.40
2008,05,25,16,21,21.30
2008,05,25,16,22,21.30
2008,05,25,16,23,21.40
2008,05,25,16,24,21.50
2008,05,25,16,25,21.60
2008,05,25,16,26,21.70
2008,05,25,16,27,21.70
2008,05,25,16,28,21.80
2008,05,25,16,29,21.80
2008,05,25,16,30,21.80
2008,05,25,16,31,21.80
2008,05,25,16,32,21.80
2008,05,25,16,33,21.80
2008,05,25,16,34,21.70
2008,05,25,16,35,21.60
2008,05,25,16,36,21.50
2008,05,25,16,37,21.60
2008,05,25,16,38,21.60
2008,05,25,16,39,21.70
2008,05,25,16,40,21.70
2008,05,25,16,41,21.70
2008,05,25,16,42,21.60
2008,05,25,16,43,21.60
2008,05,25,16,44,21.50
2008,05,25,16,45,21.40
2008,05,25,16,46,21.30
2008,05,25,16,47,21.20
2008,05,25,16,48,21.10
2008,05,25,16,49,21.00
2008,05,25,16,50,20.90
2008,05,25,16,51,20.90
2008,05,25,16,52,20.90
2008,05,25,16,53,20.90
2008,05,25,16,54,20.90
2008,05,25,16,55,21.00
2008,05,25,16,56,21.10
2008,05,25,16,57,21.20
2008,05,25,16,58,21.30
2008,05,25,16,59,21.30
2008,05,25,17,00,21.30
2008,05,25,17,01,21.30
2008,05,25,17,02,21.30
2008,05,25,17,03,21.30
2008,05,25,17,04,21.30
2008,05,25,17,05,21.30
2008,05,25,17,06,21.30
2008,05,25,17,07,21.30
2008,05,25,17,08,21.30
2008,05,25,17,09,21.30
2008,05,25,17,10,21.30
2008,05,25,17,11,21.30
2008,05,25,17,12,21.40
2008,05,25,17,13,21.30
2008,05,25,17,14,21.20
2008,05,25,17,15,21.20
2008,05,25,17,16,21.20
2008,05,25,17,17,21.20
2008,05,25,17,18,21.10
2008,05,25,17,19,21.10